Location: Pinhey's Point
(45.4411°N, 75.9539°W)
Time: 12:00:07
(UTC-04:00)

Daily predictions for brighter satellites

Satellite Brightness Start Highest point End
(mag) Time Altitude Azimuth Time Altitude Azimuth Time Altitude Azimuth
Cosmos 1954 Rocket 4.1 20:58:44 10° NNW 21:03:57 68° ENE 21:09:09 10° SSE
Okean 3 4.0 21:04:11 10° N 21:08:17 42° ENE 21:12:20 10° SSE
Cosmos 2056 Rocket 4.1 21:03:26 10° SSW 21:08:32 62° WNW 21:13:37 10° NNE
COS B Rocket 3.7 21:06:08 10° NNE 21:09:57 41° E 21:13:23 10° SSE
Cosmos 1833 Rocket 3.8 21:09:20 10° N 21:14:17 30° NE 21:19:12 10° ESE
CZ-4 DEB 3.5 21:12:13 10° S 21:15:20 54° W 21:18:27 10° NNW
Cosmos 1844 Rocket 3.0 21:14:39 10° SSW 21:20:18 73° WNW 21:25:57 10° NNE
Cosmos 1741 Rocket 4.5 21:15:23 10° NNW 21:20:27 47° ENE 21:25:28 10° SE
Cosmos 1825 2.3 21:17:09 10° S 21:20:52 53° E 21:24:37 10° NNE
Cosmos 1939 Rocket 2.8 21:17:17 10° SSE 21:21:11 80° ENE 21:25:09 10° N
Cosmos 1674 Rocket 4.5 21:17:53 10° NNW 21:22:14 52° W 21:26:31 10° S
Cosmos 2278 Rocket 2.2 21:16:52 10° S 21:22:27 61° ESE 21:28:03 10° NNE
SL-8 R/B 4.1 21:19:52 10° W 21:24:41 67° N 21:29:29 10° ENE
Cosmos 1844 3.9 21:22:49 10° SSW 21:28:37 83° WNW 21:34:27 10° NNE
ALOS 4.3 21:25:05 10° SSW 21:29:03 27° W 21:33:03 10° NW
Okean 2 Rocket 3.3 21:29:27 10° SSE 21:33:42 50° E 21:37:58 10° NNE
Envisat 3.1 21:33:14 10° SSE 21:38:19 82° WSW 21:43:27 10° NNW
Cosmos 2082 Rocket 2.5 21:34:35 10° NNW 21:40:12 55° ENE 21:44:56 14° SE
Cosmos 614 Rocket 4.0 21:35:35 10° NNW 21:40:39 63° ENE 21:45:01 14° SSE
PSLV R/B 3.3 21:38:39 15° SSE 21:40:55 51° ENE 21:43:49 10° N
Cosmos 1782 Rocket 3.5 21:37:04 10° S 21:41:30 74° E 21:46:00 10° NNE
Nadezhda 3 Rocket 4.3 21:36:46 10° NNW 21:43:07 74° W 21:49:28 10° S
CZ-4 SHROUD 3.4 21:41:47 15° SSE 21:44:07 54° ENE 21:47:09 10° N
Intercosmos 25 3.3 21:43:01 10° SSE 21:46:17 44° E 21:49:20 10° NNE
BREEZE-M DEB 4.5 21:42:20 10° WSW 21:46:55 84° NNW 21:49:49 10° ENE
Cosmos 2218 Rocket 4.4 21:42:29 10° SSE 21:48:32 46° E 21:54:35 10° NNE
Cosmos 2084 3.9 21:44:57 10° SW 21:48:45 58° NW 21:52:33 10° NNE
ERS-1 Rocket 4.0 21:45:30 10° S 21:50:18 44° W 21:55:07 10° NNW
Cosmos 1812 4.3 21:47:23 10° NNE 21:50:20 20° ENE 21:52:04 15° ESE
Cosmos 1420 Rocket 3.9 21:45:39 10° SSW 21:50:52 74° ESE 21:56:06 10° NNE
COSMOS 2487 3.7 21:47:32 10° NW 21:50:57 39° WSW 21:54:20 10° S
APEX 3.6 21:47:25 10° SSW 21:51:25 63° ESE 21:56:42 10° NNE
DNEPR-1 R/B 4.1 21:46:22 10° NW 21:51:48 65° WSW 21:55:32 15° SSE
Cosmos 1975 Rocket 3.2 21:49:42 10° NNW 21:54:02 74° W 21:58:21 10° S
Meteor 1-14 Rocket 4.4 21:49:42 10° S 21:55:10 54° E 22:00:36 10° NNE
Cosmos 1140 Rocket 3.8 21:50:07 10° NNW 21:55:14 66° WSW 22:00:06 11° S
Cosmos 1727 Rocket 4.4 21:53:40 10° N 21:59:38 48° ENE 22:04:02 18° SE
Cosmos 2297 3.7 21:54:19 10° S 21:59:55 63° ESE 22:05:36 10° NNE
AVUM R/B 3.9 22:00:01 10° NNW 22:03:27 48° ENE 22:05:09 25° ESE
Terra 3.1 22:01:13 17° ESE 22:03:52 27° ENE 22:07:52 10° N
CZ-4B R/B 3.6 22:00:38 10° NNE 22:05:27 50° E 22:09:18 15° S
NOAA 11 4.3 22:01:14 17° SSE 22:05:27 65° ENE 22:10:55 10° N
Cosmos 1536 Rocket 3.9 22:02:33 10° N 22:06:56 50° ENE 22:09:31 23° SE
ISS -2.7 22:04:38 10° WSW 22:07:52 58° NNW 22:11:05 10° ENE
MetOp-B 4.3 22:04:33 12° S 22:09:29 74° WSW 22:14:52 10° NNW
Cosmos 1238 Rocket 4.4 22:09:32 10° NNW 22:12:30 29° W 22:15:54 10° SSW
H-2A R/B 2.7 22:11:12 21° SE 22:14:23 42° ENE 22:19:20 10° N
BREEZE-M DEB (TANK) 2.8 22:12:49 10° WNW 22:14:44 36° N 22:17:48 10° ENE
SPOT 5 3.8 22:14:10 10° S 22:19:19 51° W 22:24:34 10° NNW
Lacrosse 5 rocket 3.3 22:21:56 12° ENE 22:21:56 12° ENE 22:22:23 10° ENE
SL-8 Rocket 4.0 22:15:22 10° S 22:21:39 86° W 22:27:56 10° N
IGS 5A 4.3 22:25:17 26° ESE 22:26:48 36° ENE 22:30:38 10° N
USA 245 3.6 22:25:48 24° S 22:27:51 61° W 22:32:14 10° NNW
Cosmos 1242 Rocket 4.3 22:25:07 10° NNW 22:28:22 30° W 22:31:23 11° SSW
Gbstr 26 Del rocket 3.3 22:23:58 10° WNW 22:29:16 73° NNE 22:31:42 26° ESE
Cosmos 2369 Rocket 3.8 22:29:38 15° E 22:29:38 15° E 22:32:42 10° ENE
SPOT 1/Viking Rocket 3.8 22:26:12 19° S 22:30:00 70° WSW 22:35:14 10° NNW
ARGOS 3.2 22:27:48 21° S 22:31:31 77° WSW 22:36:54 10° NNW
Lacrosse 5 2.7 22:31:52 28° SE 22:31:54 28° SE 22:36:14 10° ENE
H-2A R/B 4.2 22:31:05 10° SW 22:34:22 21° W 22:37:36 10° NW
YAOGAN 6 4.0 22:33:23 16° SSW 22:35:41 33° W 22:38:56 10° NNW
Cosmos 2151 Rocket 3.8 22:36:41 17° SSW 22:40:12 74° W 22:44:45 10° N
CZ-4C R/B 3.3 22:38:45 38° SSE 22:40:12 76° ENE 22:44:24 10° N
USA 229 DEB 4.1 22:39:06 10° NW 22:46:05 60° WSW 22:50:15 26° S
USA 229 4.1 22:39:11 10° NW 22:46:11 61° WSW 22:50:21 26° SSE
Cosmos 1400 Rocket 4.2 22:49:30 25° E 22:49:30 25° E 22:52:44 10° NE
ASTEX 1 3.8 22:45:24 10° NNE 22:50:11 45° E 22:51:33 36° SE
Cosmos 1300 Rocket 3.6 22:49:12 40° SSE 22:50:34 61° E 22:54:59 10° NNE
Cosmos 1536 4.4 22:53:09 22° E 22:53:09 22° E 22:55:53 10° NE
Meteor 1-20 Rocket 4.1 22:50:14 24° S 22:53:46 85° E 22:59:18 10° NNE
Timation 1 Rocket 4.3 22:49:15 10° SSW 22:55:15 83° ESE 23:01:18 10° NNE
Okean 1 Rocket 3.1 22:56:16 44° SSE 22:57:27 63° E 23:01:53 10° NNE
Cosmos 1833 Rocket 3.3 22:53:01 10° NW 22:58:25 48° WSW 23:01:16 26° SSW
SAR-Lupe-2 3.6 23:03:13 57° E 23:03:25 58° ENE 23:06:57 10° N
NOSS 3-1 (A) 4.2 22:57:00 10° NW 23:04:26 69° NE 23:09:02 28° SE
Cosmos 2278 Rocket 4.4 23:02:19 10° WSW 23:06:57 25° NW 23:11:39 10° N
SL-8 R/B 4.0 23:02:46 10° WNW 23:07:35 66° N 23:10:22 25° E
CZ-4 R/B 4.4 23:03:31 10° N 23:08:06 55° WNW 23:11:24 18° SW
Cosmos 1331 Rocket 3.9 23:05:38 23° SSW 23:08:52 84° WNW 23:14:04 10° NNE
Cosmos 1503 Rocket 4.4 23:04:29 10° NNW 23:09:36 51° ENE 23:11:14 38° ESE
Okean 1-7 Rocket 3.5 23:07:34 10° N 23:12:05 85° W 23:13:10 52° S
Okean 1 3.8 23:09:36 10° NNW 23:13:35 54° W 23:14:37 41° SW
Cosmos 1110 Rocket 4.3 23:13:24 16° SW 23:17:33 63° WNW 23:22:44 10° NNE
DMSP B5D2-2 4.0 23:13:07 10° NNE 23:18:22 88° WNW 23:20:37 36° SSW
Cosmos 2082 Rocket 3.9 23:19:24 10° NW 23:23:54 24° WSW 23:26:48 16° SW
ATLAS 2AS CENTAUR R/B 3.8 23:17:32 10° NNW 23:25:21 45° NE 23:30:49 19° ESE
Cosmos 1812 4.1 23:22:51 10° NNW 23:26:16 30° W 23:27:16 27° WSW
Cosmos 1602 3.6 23:27:32 79° E 23:27:32 79° E 23:31:26 10° N
NOSS 3-1 (C) 4.0 23:26:03 10° NW 23:33:33 75° SW 23:37:00 39° SSE
Meteor 2-4 Rocket 3.6 23:30:26 10° N 23:35:54 72° ENE 23:37:12 52° SE
Genesis I 3.2 23:37:08 81° W 23:37:15 83° NW 23:41:17 10° NE
USA 234 3.2 23:34:02 10° NE 23:40:30 61° SE 23:43:56 29° SSW
Terra 2.9 23:40:06 31° SW 23:41:28 37° W 23:45:53 10° NNW
BREEZE-M TANK 2.6 23:34:41 10° WNW 23:42:07 67° SSW 23:42:07 67° SSW
Cosmos 2239 Rocket 4.5 23:40:40 40° SSW 23:43:10 85° W 23:49:31 10° N
Cosmos 1354 Rocket 3.9 23:38:46 10° NNW 23:44:04 81° WSW 23:45:03 59° S
ISS -1.1 23:41:53 10° WNW 23:44:44 27° N 23:46:44 15° NE
Cosmos 1356 4.3 23:51:54 48° WNW 23:51:54 48° WNW 23:55:05 10° N
Cosmos 2084 Rocket 3.4 23:48:06 10° NW 23:51:39 72° NNW 23:51:39 72° NNW
Spot 2 4.4 23:48:44 10° N 23:52:58 56° WNW 23:53:38 50° WSW
H-2A R/B 3.6 23:51:51 22° SW 23:53:55 28° W 23:58:27 10° NW
Cosmos 1315 Rocket 3.1 23:55:13 61° NNE 23:55:13 61° NNE 23:58:34 10° NNE
